Lapse_Rate
6.4 6.5 6.3 6.1 5.9 5.8 5.9 6.3 5.8 5.6 5.9 5.9 5.7 5.5 5.3 5.5 5.7 5.8 5.7 5.9 6.1 6.1 5.8 5.7 5.8 5.7 5.7 5.8 5.6 5.7 5.7 5.4 5.4 5.4 5.7 5.7 5.6 5.5 5.4 5.7 5.4 5.3 5.6
6.6 6.7 6.7 6.3 6.1 6.1 5.6 5.7 5.6 5.6 5.8 5.8 5.4 5.5 5.8 5.9 6.0 5.7 6.0 6.2 6.2 6.2 5.8 5.7 5.7 5.7 5.7 5.6 5.6 5.6 5.6 5.7 5.6 5.5 5.6 5.7 5.7 5.5 5.5 5.7 5.9 5.6 5.6
7.5 7.0 7.0 6.6 6.2 6.2 5.8 5.6 5.6 5.6 5.6 5.9 6.0 6.2 6.3 6.3 5.9 5.9 5.7 6.0 6.0 6.2 6.0 5.8 5.9 5.7 5.7 5.6 5.6 5.5 5.6 5.5 5.6 5.6 5.5 5.5 5.7 5.5 5.3 5.4 5.5 5.6 5.5
7.6 7.3 7.0 6.8 6.4 6.0 5.9 5.7 5.6 5.8 5.7 6.0 6.1 6.3 6.4 6.1 6.1 5.8 5.9 5.7 5.9 6.1 5.8 6.0 5.8 5.8 5.7 5.5 5.5 5.6 5.6 5.6 5.6 5.6 5.6 5.7 5.5 5.3 5.1 5.2 5.5 5.5 5.5
7.2 7.7 7.3 6.9 6.4 6.1 5.8 5.8 5.9 5.8 5.8 6.0 6.2 6.1 6.7 6.5 6.4 6.2 5.9 6.0 6.0 6.0 6.1 6.0 5.9 5.8 5.8 5.7 5.6 5.5 5.5 5.5 5.5 5.5 5.5 5.3 5.3 5.2 5.0 5.2 5.9 5.9 5.7
7.6 7.6 7.5 7.2 6.2 6.0 5.7 5.6 5.7 6.2 6.2 6.2 6.4 6.4 6.4 6.3 6.2 6.2 6.1 6.0 6.2 6.4 6.2 6.1 6.0 6.0 6.0 5.8 5.7 5.6 5.3 5.1 5.3 5.5 5.2 5.3 5.5 5.8 5.6 5.4 5.6 5.8 5.2
7.8 7.3 7.4 7.2 6.8 6.3 6.0 5.8 5.6 6.1 6.4 6.7 6.8 6.7 6.6 6.5 6.6 6.6 6.7 6.8 6.7 6.5 6.4 6.3 6.1 5.9 5.8 5.8 5.6 5.5 5.7 5.5 5.5 5.3 5.2 5.4 5.2 5.7 6.0 6.0 5.7 5.9 5.4
8.0 7.7 7.7 7.4 6.9 6.7 6.3 5.9 5.8 6.0 6.6 6.6 6.9 6.9 6.8 6.7 6.8 6.9 6.7 6.6 6.7 6.4 6.3 6.2 6.1 5.8 5.8 5.9 5.8 5.7 5.6 5.4 5.5 5.4 5.4 5.4 5.5 5.8 6.1 6.3 6.2 5.9 5.5
8.5 8.0 7.7 7.5 7.1 6.9 6.8 6.5 6.2 6.2 6.4 6.7 6.9 6.9 6.9 6.7 6.8 6.9 6.6 6.5 6.5 6.3 6.2 6.2 6.1 6.0 5.9 5.8 5.7 5.7 5.8 5.8 5.7 5.9 5.9 5.8 5.9 6.0 6.0 6.1 6.2 6.2 5.6
8.4 8.2 7.8 7.7 7.3 7.2 6.9 6.9 6.4 6.5 6.5 6.7 6.9 7.0 6.8 6.8 6.8 6.7 6.6 6.4 6.3 6.2 6.1 6.0 5.9 5.9 5.9 5.9 5.8 5.8 5.9 5.9 5.9 5.9 5.8 5.9 5.9 6.0 6.0 6.0 6.1 6.3 6.0
8.3 8.2 8.0 7.7 7.5 7.5 7.2 7.1 6.8 6.7 6.9 6.8 6.8 6.8 6.7 6.7 6.7 6.5 6.4 6.3 6.2 6.2 6.1 6.0 6.0 5.9 5.8 5.8 5.8 5.8 5.9 5.9 5.9 5.8 5.9 5.8 5.9 5.9 6.0 6.0 6.0 6.0 6.1
8.6 8.4 8.2 8.2 8.0 8.1 7.5 7.3 7.1 7.0 6.9 6.8 6.8 6.6 6.7 6.7 6.6 6.6 6.4 6.3 6.3 6.2 6.1 6.1 6.0 5.9 5.9 5.9 5.9 5.8 5.8 5.8 5.8 5.7 5.8 5.8 5.8 5.8 5.9 6.0 5.9 5.9 6.0
8.4 8.6 8.2 8.6 8.5 8.3 7.9 7.8 7.5 7.3 7.2 7.1 7.0 6.8 7.0 7.0 6.9 6.8 6.7 6.5 6.4 6.3 6.2 6.2 6.1 6.1 6.2 6.1 6.0 6.0 5.9 5.9 5.9 5.8 5.7 5.7 5.7 5.7 5.7 5.7 5.7 5.5 5.6
9.3 9.0 8.4 8.8 8.7 8.7 8.5 8.2 7.9 7.7 7.5 7.3 7.0 7.1 7.0 7.0 6.9 6.8 6.7 6.6 6.6 6.6 6.5 6.4 6.3 6.3 6.3 6.1 6.1 6.0 5.9 5.8 5.8 5.6 5.6 5.7 5.8 5.7 5.7 5.5 5.5 5.5 5.6
9.3 9.2 8.8 9.0 9.1 9.0 8.8 8.6 8.4 8.0 7.9 7.7 7.4 7.1 7.1 6.7 6.9 6.9 6.7 6.8 6.9 7.0 7.0 6.8 6.6 6.5 6.3 6.2 6.0 6.0 6.0 5.9 5.6 5.3 5.5 5.8 5.6 5.5 5.4 5.5 5.5 5.5 5.5
9.1 9.1 9.2 9.1 9.0 8.8 8.8 8.7 8.6 8.5 8.2 7.8 7.7 7.4 7.2 7.0 6.8 6.9 6.8 6.8 6.9 6.9 6.9 6.8 6.7 6.6 6.4 6.2 6.2 6.2 6.1 6.0 5.6 5.3 5.2 5.6 5.4 5.3 5.5 5.6 5.6 5.7 5.8
8.8 8.7 8.6 8.7 8.9 8.7 8.7 8.7 8.4 8.6 8.3 8.1 7.8 7.4 7.3 7.0 6.8 6.8 6.8 6.9 6.7 6.6 6.6 6.6 6.6 6.5 6.2 6.2 6.3 6.1 5.8 5.7 5.7 5.6 5.2 5.6 5.5 5.6 5.5 5.5 5.7 5.7 5.9
8.4 8.4 8.5 8.5 8.7 8.7 7.9 7.6 7.4 7.3 7.7 8.2 7.9 7.5 7.2 7.0 7.1 7.0 6.7 6.6 6.5 6.4 6.4 6.4 6.4 6.2 6.1 6.2 6.3 6.1 5.8 5.6 5.5 5.6 5.4 5.4 5.4 5.5 5.5 5.5 5.7 5.9 6.1
8.8 8.9 8.9 8.4 8.0 8.0 8.1 7.7 7.5 7.5 6.2 6.9 7.1 7.6 7.1 7.2 7.1 6.9 6.6 6.7 6.5 6.2 6.2 6.3 6.2 6.2 6.2 6.2 6.2 6.1 5.8 5.6 5.5 5.7 5.5 5.3 5.3 5.3 5.5 5.7 5.8 6.0 6.0
8.8 8.8 8.6 8.5 8.2 8.1 7.6 7.5 7.6 7.4 7.0 4.6 4.8 6.4 7.0 6.9 6.7 6.7 6.9 6.7 5.9 6.0 5.7 5.6 6.1 6.1 6.0 6.4 6.1 5.9 5.8 5.7 5.6 5.6 5.4 5.2 5.2 5.4 5.6 5.7 5.7 5.7 5.8
8.4 8.3 8.3 8.5 8.3 7.8 7.6 6.7 5.4 6.9 6.5 5.6 4.9 5.3 6.4 6.6 6.7 6.7 6.7 6.3 6.1 5.7 5.6 5.6 5.9 6.0 6.0 6.1 6.0 5.8 5.5 5.6 5.6 5.6 5.6 5.5 5.5 5.5 5.5 5.4 5.5 5.7 5.7
7.9 8.2 7.8 7.5 7.6 7.4 7.3 7.2 6.2 6.5 6.2 5.2 4.9 5.4 5.9 6.3 6.3 6.5 6.1 6.0 5.8 5.6 5.7 5.8 5.7 6.0 5.8 5.7 5.6 5.4 5.4 5.5 5.5 5.5 5.4 5.5 5.5 5.5 5.4 5.4 5.4 5.5 5.7
7.3 7.5 7.7 7.6 7.4 7.3 7.4 6.7 6.7 6.5 6.0 7.1 6.0 6.0 5.9 5.8 6.2 6.1 6.0 5.9 5.5 5.7 5.9 5.9 5.8 5.6 5.4 5.4 5.5 5.6 5.4 5.1 5.0 5.2 5.3 5.3 5.2 5.2 5.2 5.2 5.3 5.3 5.4
7.3 7.4 7.2 7.1 7.0 7.3 7.4 7.0 7.1 6.8 6.6 5.8 5.5 5.6 6.0 6.5 6.4 6.2 5.8 5.6 5.4 5.7 5.7 5.7 5.6 5.5 5.4 5.4 5.4 5.5 5.6 5.4 5.2 5.2 5.1 5.3 5.3 5.3 5.2 5.1 5.1 5.2 5.2
7.2 7.3 7.1 7.4 6.9 6.9 7.0 6.8 6.4 6.5 6.3 5.6 5.5 5.6 5.9 6.0 6.0 5.7 5.5 5.6 5.7 5.7 5.6 5.6 5.6 5.5 5.2 5.1 5.2 5.4 5.5 5.5 5.4 5.3 5.1 5.2 5.2 5.2 5.2 5.3 5.1 5.1 5.0
7.2 7.4 7.1 7.1 7.0 6.9 6.4 6.4 6.0 6.0 6.2 5.7 5.5 5.8 5.9 5.9 6.0 6.0 5.5 5.5 5.6 5.4 5.3 5.3 4.9 4.7 4.9 5.0 5.0 5.2 5.2 5.1 5.2 5.3 5.2 5.2 5.2 5.2 5.3 5.3 5.2 5.1 5.0
Wind_Speed
8 10 11 15 12 8 8 9 9 8 8 4 3 1 3 3 3 3 7 7 6 4 3 2 1 1 1 2 1 1 2 2 2 2 2 1 2 4 3 2 1 1 3
6 9 14 16 17 14 11 8 10 11 8 6 3 3 3 3 3 2 2 1 1 1 2 2 2 2 2 0 2 2 1 2 2 2 1 2 2 1 3 2 3 4 5
13 11 14 16 15 14 11 11 11 9 8 6 3 2 3 3 2 1 2 2 2 4 3 1 1 1 0 1 1 2 4 2 1 2 2 2 1 2 1 3 3 4 4
15 13 12 15 15 13 11 8 9 10 7 7 5 5 4 4 4 3 3 3 2 3 7 7 4 5 2 3 2 3 0 2 1 2 3 2 3 1 4 1 1 4 6
16 14 11 13 16 14 12 11 9 8 6 6 7 5 3 2 2 1 2 1 1 2 7 7 6 5 4 4 4 3 3 2 2 1 1 1 1 1 1 3 3 3 3
17 16 9 10 13 11 12 12 10 7 8 7 7 8 8 6 4 3 2 3 3 3 4 7 6 6 4 4 3 3 4 1 2 2 2 2 2 2 2 2 3 3 3
17 18 14 12 12 13 13 11 10 8 8 8 7 7 8 7 7 6 4 5 3 2 3 4 5 3 4 4 4 4 5 4 4 3 2 2 2 0 1 0 2 2 3
17 17 16 14 14 14 14 13 11 8 8 8 8 7 7 4 4 5 4 4 3 4 4 5 6 6 6 5 4 3 3 4 4 6 4 3 2 1 1 1 2 2 2
16 17 14 15 15 14 15 14 11 9 9 9 7 7 6 7 6 6 5 4 5 4 6 6 7 6 5 5 4 3 3 3 2 3 4 2 1 2 1 2 0 3 1
15 13 14 15 13 15 13 12 11 12 7 7 6 6 7 7 6 7 7 7 6 5 6 6 6 5 5 4 4 2 1 3 2 1 4 3 2 3 3 2 1 1 3
14 14 13 13 13 12 12 11 10 8 8 7 6 6 6 8 7 7 6 6 6 6 6 6 5 6 5 4 3 2 2 3 3 3 4 3 2 3 3 3 2 3 2
14 14 14 13 10 12 11 11 9 9 8 5 5 6 6 6 6 6 6 6 6 5 6 6 5 5 4 4 4 4 3 5 4 2 3 3 2 4 4 3 5 4 3
11 12 13 13 12 11 11 11 9 9 7 6 6 6 6 6 6 7 6 5 5 5 4 4 5 5 4 3 3 3 3 4 5 4 2 2 3 2 2 2 4 3 3
14 14 14 15 14 14 14 13 12 10 10 10 11 10 8 8 7 6 6 5 4 4 4 3 4 4 3 4 3 4 2 2 3 3 3 2 1 2 3 3 3 2 3
14 17 17 16 15 14 14 14 14 11 11 11 12 11 9 8 9 8 6 5 4 3 4 4 3 3 3 3 4 4 3 2 2 1 1 2 1 7 5 2 1 1 1
16 17 17 16 16 18 17 16 14 13 14 15 14 11 11 10 8 8 8 7 5 4 4 4 3 4 2 7 6 4 2 1 1 1 2 0 5 4 3 2 4 2 1
16 18 19 20 20 20 20 19 17 16 15 14 13 12 14 13 11 10 8 7 7 6 5 4 3 4 5 8 6 5 0 2 1 2 3 3 2 5 2 2 5 4 5
6 9 13 16 19 13 2 8 14 11 1 15 14 13 14 13 12 10 8 6 5 6 4 4 4 4 5 7 7 5 1 2 3 3 6 6 5 4 4 1 4 4 4
7 6 11 5 7 11 14 13 13 12 7 20 12 15 15 12 9 8 8 5 4 4 4 4 5 5 4 8 9 6 2 2 4 4 6 3 4 7 6 3 3 5 5
11 11 5 18 16 11 13 10 6 7 21 27 10 14 11 11 11 11 8 5 3 4 4 5 6 6 6 9 9 7 3 3 2 1 4 8 7 9 5 2 1 4 4
13 13 12 15 13 8 13 10 13 10 6 25 23 14 10 8 6 5 2 5 4 4 3 4 3 5 6 7 9 9 3 3 3 2 2 2 6 7 5 3 2 4 3
9 7 7 6 3 4 4 12 12 9 9 9 11 14 7 5 5 7 4 6 5 5 4 3 4 4 5 8 10 10 9 5 3 3 3 3 8 8 6 4 7 8 6
7 4 7 6 4 2 11 15 12 6 4 11 7 8 7 7 7 7 5 3 4 3 4 3 4 4 4 4 10 11 10 8 3 4 5 8 9 8 6 8 10 7 2
8 5 9 9 6 4 5 4 4 2 5 5 8 7 7 6 5 4 4 4 4 4 4 4 5 4 4 4 4 5 5 7 6 7 5 5 6 6 7 4 4 4 4
5 6 7 7 6 4 3 4 1 5 4 3 5 4 4 5 5 3 4 5 5 5 5 5 4 3 4 4 6 7 5 5 6 2 3 3 2 4 4 3 4 3 4
5 5 6 5 4 3 3 2 4 3 2 2 2 3 3 2 3 4 4 6 10 10 11 5 6 5 8 7 8 10 11 9 7 2 2 3 3 5 4 4 5 4 4
Wind_Direction
179 156 148 158 155 149 154 176 158 158 151 145 144 137 198 185 225 236 211 234 218 210 211 234 79 69 237 261 269 162 222 306 320 343 313 29 51 113 162 230 46 317 220
172 162 151 156 167 170 170 154 163 160 166 161 172 187 167 198 190 212 213 214 286 71 153 250 219 232 248 189 252 207 205 242 189 194 207 333 343 302 170 182 189 238 235
193 176 166 173 169 175 173 165 171 169 156 163 129 77 68 59 98 209 248 201 171 353 299 216 60 342 52 238 290 197 202 199 279 216 156 15 308 316 270 150 199 206 244
199 190 172 183 180 185 179 170 163 173 163 157 139 157 184 169 208 181 200 205 105 313 89 109 109 79 71 40 26 359 86 131 76 344 34 85 155 141 332 18 225 224 244
189 206 183 184 184 176 176 170 162 164 169 165 157 159 167 208 146 167 214 111 32 113 101 98 80 84 63 59 57 33 57 66 127 91 66 51 18 69 154 299 314 293 262
186 193 185 166 172 166 167 164 165 176 171 168 154 158 167 155 148 170 160 138 140 148 110 96 96 85 63 48 31 27 44 41 115 77 65 71 38 322 244 246 287 254 295
175 181 171 167 161 157 163 163 167 177 177 169 168 163 164 163 164 171 170 159 147 132 108 112 100 85 74 49 43 56 74 53 78 77 106 98 105 270 343 264 298 295 313
174 177 171 165 164 163 164 166 172 170 174 166 172 172 160 158 170 172 162 161 151 148 134 122 99 88 77 56 53 45 55 59 73 70 62 98 93 47 358 224 142 7 336
175 178 167 165 165 165 170 170 174 179 174 171 174 179 173 164 166 154 137 139 137 135 144 123 115 112 95 90 92 68 52 68 63 70 57 68 65 38 3 337 102 154 98
170 166 167 165 167 169 170 171 178 180 182 176 171 176 168 150 142 134 137 134 135 130 131 128 135 132 119 108 91 79 29 50 38 91 66 50 66 61 22 22 51 95 147
161 161 165 168 166 166 169 174 174 170 185 180 181 159 155 143 140 137 145 147 137 143 136 149 148 142 146 140 92 82 58 45 12 64 106 55 58 65 49 33 32 47 87
164 160 162 164 160 167 169 175 171 177 186 186 165 156 144 137 134 133 142 149 148 163 158 153 146 152 160 133 116 110 93 77 96 54 86 83 66 52 41 41 37 34 13
163 161 159 169 171 171 172 168 173 181 176 154 146 147 146 140 147 143 149 156 144 158 162 145 147 165 175 148 152 138 125 117 96 103 120 151 108 60 41 50 43 15 14
171 164 171 179 179 177 173 175 177 176 175 167 160 166 167 159 154 149 154 148 149 156 175 188 185 192 184 184 166 124 92 77 91 114 102 125 141 143 90 75 50 41 36
168 181 184 185 184 182 183 181 184 170 168 166 168 166 155 150 151 148 149 148 149 142 160 144 169 133 138 158 145 130 114 73 23 153 132 59 275 194 160 125 315 34 22
184 193 193 187 187 189 185 187 181 179 167 173 171 152 148 154 158 150 147 150 153 158 156 155 165 143 150 152 159 120 122 111 54 334 278 104 101 141 154 96 17 235 227
204 196 197 195 195 193 188 188 185 171 172 168 166 152 161 161 161 150 151 161 171 172 178 185 151 161 174 176 163 146 223 306 278 282 270 285 131 137 149 356 357 344 342
245 229 215 212 209 197 183 44 22 9 281 172 163 163 163 166 158 149 154 165 162 175 181 207 182 166 199 194 189 170 197 287 297 282 267 232 214 197 171 84 2 347 343
330 283 237 236 107 111 93 80 54 46 334 356 284 175 173 157 150 151 150 147 153 173 193 207 193 183 229 188 193 176 213 297 310 331 353 194 194 213 170 101 21 338 316
22 341 113 87 92 71 64 41 45 357 354 311 265 247 157 156 162 155 168 143 149 196 202 220 209 199 203 204 204 180 186 239 253 302 344 359 183 188 178 131 70 323 294
51 56 84 98 105 116 119 99 10 30 23 308 204 173 141 155 171 159 148 133 142 154 188 203 204 190 207 213 208 190 212 227 238 241 274 240 165 185 208 191 197 230 259
52 53 79 76 46 148 115 100 137 163 96 44 25 101 130 161 155 140 138 123 150 186 209 225 251 245 230 218 214 205 195 210 238 241 239 237 215 222 244 260 247 247 277
83 65 78 75 67 129 132 137 151 208 122 123 118 124 147 146 137 126 132 133 171 202 227 229 247 262 257 240 224 211 204 194 219 251 235 243 263 282 295 253 263 278 269
69 75 93 104 101 129 113 131 211 309 42 126 141 166 133 119 126 141 147 156 196 215 234 244 254 272 269 251 201 206 210 219 229 258 270 261 256 247 257 292 255 243 227
65 85 101 107 108 123 165 136 291 325 103 117 142 144 144 149 155 169 177 197 219 194 211 226 216 197 252 246 198 184 201 208 221 196 298 315 322 306 300 295 277 255 236
134 79 60 70 59 349 321 175 175 249 167 175 172 137 155 150 175 188 244 252 241 229 224 226 178 232 234 237 209 209 214 208 161 130 247 279 278 272 282 292 298 298 283